Temp
16 16 16 16 16 16 16 16 16 16 17 17 17 17 17 17 17 17 17 17 17 17 17 17 17 16 16 16 16 15 15 15 15 15 15 15 15 15 14 14 13 13 13 13 12 12 12 12 12 12 11 11 11 10 10 9 9 9 9 9 9 8 8 7 6 5 5 4 4
16 16 16 16 16 16 16 16 16 16 16 17 17 17 17 17 17 17 17 17 17 17 17 16 16 16 16 16 15 15 15 16 16 16 15 15 15 15 14 13 13 13 13 13 12 12 12 12 12 11 11 11 10 10 9 8 9 9 9 9 8 7 7 6 5 5 4 4 4
16 16 16 16 16 16 16 16 16 16 16 16 17 17 17 17 17 17 17 17 17 16 16 16 16 16 16 16 16 16 16 16 16 15 15 15 15 14 13 13 13 13 13 12 12 12 12 12 11 11 11 10 10 9 9 8 9 9 9 8 7 6 6 5 4 4 4 4 4
16 16 16 16 16 16 16 16 16 16 16 16 16 16 17 17 16 16 16 16 16 16 16 16 16 16 16 16 16 16 15 15 15 15 15 14 14 13 13 13 13 13 12 12 12 12 12 12 11 11 11 10 10 9 9 9 9 9 8 7 7 6 5 5 4 4 4 4 4
16 16 16 16 16 16 16 17 17 17 16 16 16 16 16 16 16 16 16 16 16 16 16 16 16 16 16 16 16 15 15 15 15 15 14 14 13 13 13 13 12 12 12 12 12 12 12 12 12 11 10 10 9 9 9 9 9 8 8 7 6 5 5 4 4 4 4 4 4
16 16 16 16 16 16 17 17 17 17 17 16 16 16 16 16 16 16 16 16 16 16 16 16 16 16 16 16 15 15 15 14 14 14 14 14 13 13 12 12 12 12 12 12 12 12 12 12 11 11 10 10 10 9 9 9 8 8 7 6 5 4 4 4 4 4 4 4 4
16 16 16 16 16 16 16 17 17 17 16 16 16 16 16 16 16 16 16 16 16 16 16 16 16 16 16 15 15 14 14 14 13 13 13 13 13 12 12 12 12 12 12 12 12 12 11 11 11 10 10 10 10 9 8 8 7 7 7 6 5 4 4 4 4 4 4 4 4
16 16 16 16 16 16 16 17 16 16 16 16 16 16 16 16 16 16 16 16 16 16 16 16 16 16 15 15 15 14 14 13 13 13 13 13 12 12 12 12 12 12 12 11 11 11 11 11 10 10 10 10 9 8 8 7 7 7 7 6 5 4 4 4 4 4 4 4 4
16 16 16 16 16 16 16 16 16 16 16 16 16 16 16 16 16 16 16 16 16 16 16 16 15 15 15 15 14 14 13 13 13 13 12 12 12 12 12 12 12 12 11 11 11 11 11 10 10 10 9 9 9 8 7 7 7 7 6 6 5 4 4 4 4 4 4 4 4
16 16 16 16 16 16 16 16 16 16 16 16 16 16 16 16 16 16 16 16 15 15 15 15 15 14 14 14 14 14 13 13 13 12 12 12 12 12 12 12 12 11 11 11 11 10 10 10 10 9 9 9 8 8 7 7 7 7 6 5 5 4 4 4 3 3 3 4 3
16 16 16 16 16 16 16 16 16 16 16 16 16 15 15 15 15 16 16 15 15 15 15 15 15 14 14 14 14 13 13 12 12 12 12 12 12 12 12 12 12 11 11 11 10 10 10 10 9 9 9 8 8 8 7 6 6 6 6 5 5 4 4 4 3 3 3 3 3
16 16 16 16 16 16 16 16 16 16 16 15 15 15 15 15 15 15 15 15 15 15 15 14 14 14 14 13 13 13 13 12 12 12 12 12 12 12 12 11 11 11 11 10 10 10 10 10 9 9 9 8 8 7 7 6 6 6 5 5 4 4 4 3 3 3 3 2 2
16 16 16 16 16 16 16 16 16 15 15 15 15 15 15 15 15 15 15 15 15 15 14 14 14 13 13 13 13 13 13 12 12 12 12 12 12 11 11 11 11 10 10 10 10 10 10 9 9 9 9 8 7 7 6 6 6 6 5 5 4 4 4 3 3 2 2 2 2
16 16 16 16 16 16 16 15 15 15 15 15 14 14 14 15 15 15 15 15 15 15 14 13 13 13 13 13 13 13 13 13 12 12 12 11 11 11 11 11 11 11 10 10 10 9 9 9 9 9 8 8 7 7 6 6 6 6 5 5 4 4 3 3 2 2 2 2 1
15 16 16 16 15 15 15 15 15 14 14 14 14 14 14 14 14 15 15 15 15 15 14 13 12 12 12 12 13 13 12 12 12 12 11 11 11 11 11 11 11 11 10 10 10 9 9 9 9 8 8 8 7 7 6 6 6 5 5 5 4 4 3 2 2 2 2 2 1
15 15 15 15 15 15 15 15 14 14 14 14 14 14 14 14 14 14 14 15 15 14 13 13 12 12 12 12 12 12 12 12 12 12 11 11 11 11 11 11 11 11 10 10 9 9 9 8 8 8 8 8 7 7 6 6 5 5 5 4 4 3 2 2 2 1 1 1 1
15 15 15 15 15 15 14 14 14 14 14 14 14 14 14 14 14 14 14 15 14 14 13 12 12 12 12 12 12 12 12 12 11 11 11 11 11 11 11 11 11 11 10 10 9 9 8 8 8 8 7 7 7 6 6 5 5 5 4 4 3 2 2 2 1 1 1 1 1
15 15 15 15 14 14 14 14 14 14 14 14 14 14 14 14 14 14 14 14 14 13 12 12 12 12 12 12 11 11 11 11 11 11 11 11 11 11 11 11 11 10 10 10 9 9 8 8 7 7 7 7 6 6 5 5 5 4 4 3 2 2 2 1 1 1 1 1 1
14 14 14 14 14 14 14 14 14 14 14 14 14 14 14 14 14 13 13 13 13 13 12 12 11 11 11 11 11 11 11 11 11 11 11 11 11 11 11 11 10 10 9 9 9 8 8 8 7 7 7 6 6 6 5 5 4 4 3 2 2 2 1 1 1 1 1 0 0
14 14 14 14 14 14 14 14 14 14 14 14 14 14 14 13 13 13 12 12 12 12 12 12 12 11 11 11 11 11 11 11 11 11 11 11 11 11 11 10 10 9 9 9 8 8 8 7 7 7 7 6 6 5 5 4 4 3 2 2 2 1 1 1 0 0 0 0 0
14 14 14 14 14 14 14 14 14 14 13 13 13 13 13 13 13 12 12 12 12 12 12 12 12 11 11 11 11 11 11 11 11 11 11 10 10 10 10 10 9 9 8 8 8 8 7 7 7 7 6 6 6 5 5 4 3 2 2 2 1 1 1 0 0 0 0 0 0
14 14 14 14 14 14 14 14 13 13 13 13 12 12 12 12 12 12 12 12 12 12 12 12 12 11 11 11 11 11 11 11 11 10 10 10 10 10 10 10 9 9 8 8 8 7 7 7 7 6 6 6 5 5 4 3 3 2 2 1 1 1 1 0 0 0 0 0 0
14 13 13 13 13 13 13 13 13 13 12 12 12 12 12 12 12 11 11 11 12 12 12 11 11 11 11 11 11 12 11 10 10 10 10 10 10 10 9 9 9 8 8 8 7 7 7 7 6 6 6 5 5 4 3 3 2 2 2 1 1 1 0 0 0 0 0 0 0
13 13 13 13 13 13 13 13 12 12 12 12 12 12 11 11 11 11 11 11 11 11 11 11 11 11 11 11 11 11 11 10 10 10 10 10 10 9 9 9 8 8 8 7 7 7 7 7 6 6 5 5 4 3 3 2 2 2 2 1 1 1 0 0 0 0 0 0 0
13 13 13 13 13 13 12 12 12 12 12 12 12 12 11 11 11 11 11 11 11 11 11 11 10 11 11 11 11 11 10 11 11 10 10 9 9 9 9 8 8 7 7 7 7 6 6 6 6 5 5 4 3 3 2 2 2 2 2 1 1 1 0 0 0 0 0 0 0
13 13 12 12 12 12 12 12 12 12 12 11 11 11 11 11 11 11 11 11 11 10 10 10 10 10 11 11 10 10 10 10 10 10 10 9 9 8 8 8 7 7 7 7 6 6 5 5 5 5 5 4 3 3 2 2 2 1 1 1 1 1 1 0 0 0 0 0 0
12 12 12 12 12 12 12 12 12 12 11 11 11 11 11 11 11 11 11 11 10 10 10 10 10 10 10 10 10 10 10 10 10 10 10 9 9 8 8 7 7 7 6 6 5 5 4 4 4 4 4 4 3 3 2 2 1 1 1 1 1 1 1 1 0 0 -0 -0 -0
12 12 12 12 11 11 11 11 11 11 11 11 11 11 11 11 11 10 10 10 10 9 9 9 9 9 9 9 9 10 10 10 9 9 9 9 9 8 8 7 7 6 6 5 5 4 4 4 3 3 3 3 3 3 3 2 1 1 1 1 1 1 1 0 0 -0 -0 -0 -0
12 12 11 11 11 11 11 11 11 11 11 11 11 11 11 11 10 10 10 9 9 9 8 8 9 9 9 9 9 9 10 9 9 9 9 8 8 7 7 7 6 6 5 4 4 4 3 3 3 3 3 3 3 3 2 2 2 1 1 1 0 0 0 0 0 -0 -0 -0 -0
11 11 11 11 11 10 10 10 11 10 10 10 10 10 10 10 10 10 9 9 9 8 9 9 9 9 9 9 9 9 9 8 8 8 8 8 7 7 6 6 5 5 4 3 3 3 3 3 3 3 3 3 3 3 2 2 1 1 1 0 0 0 0 -0 -0 -0 -0 -0 -1
11 11 11 11 10 10 10 10 10 10 10 10 10 10 10 10 9 9 9 9 9 9 9 9 9 9 9 9 9 9 9 8 8 8 8 7 7 6 6 5 5 4 3 3 3 3 3 3 3 3 3 2 2 2 2 2 1 1 1 0 0 -0 -0 -0 -0 -1 -1 -1 -1
11 11 11 10 10 10 10 10 10 10 9 9 9 9 9 9 9 9 9 9 9 9 9 9 9 9 9 9 9 9 8 8 7 7 7 7 7 6 6 5 4 3 3 2 2 2 2 2 2 2 2 2 2 2 2 1 1 1 0 0 -0 -0 -0 -1 -1 -1 -1 -1 -1
10 10 10 10 10 9 9 9 9 9 9 9 9 9 9 9 9 8 8 8 8 9 9 9 9 9 8 9 8 8 8 7 7 7 7 6 6 6 5 4 3 3 2 2 2 2 1 2 2 2 2 2 2 2 1 1 1 0 0 -0 -0 -1 -1 -1 -1 -1 -1 -1 -1
10 10 10 10 9 9 9 9 9 8 8 8 8 8 8 8 8 8 8 8 8 9 9 9 9 9 9 9 9 8 7 7 6 6 6 6 6 5 4 3 3 2 2 2 1 1 1 1 2 2 2 2 2 2 1 1 1 0 -0 -0 -1 -1 -1 -1 -1 -1 -1 -1 -1
10 10 9 9 9 9 8 8 8 8 8 8 8 8 8 8 8 8 8 7 8 8 8 8 8 8 8 9 9 9 8 7 6 6 6 6 5 5 4 3 2 2 2 1 1 1 1 1 1 2 2 2 2 1 1 1 0 0 -0 -1 -1 -1 -1 -1 -1 -1 -1 -1 -1
10 10 9 9 9 8 8 8 8 7 7 7 7 7 7 7 7 7 7 7 7 7 7 7 7 7 7 7 8 7 7 7 6 6 5 5 5 4 3 3 2 2 1 1 1 1 0 1 1 2 2 2 1 1 1 1 0 -0 -0 -1 -1 -1 -1 -1 -2 -2 -1 -1 -2
10 10 9 9 8 8 8 8 7 7 7 7 7 7 7 6 6 6 7 7 7 7 7 7 7 7 7 7 7 7 7 6 6 6 5 5 4 4 3 2 2 1 1 1 1 0 0 1 1 2 2 1 1 1 1 0 0 -0 -1 -1 -1 -1 -2 -2 -2 -2 -2 -2 -2
9 9 9 9 8 8 8 7 7 7 7 7 6 7 7 6 6 6 6 6 7 7 7 7 7 7 7 7 7 6 6 6 6 6 5 4 4 4 3 2 1 1 1 1 0 0 0 1 1 2 2 1 1 1 1 0 0 -0 -1 -1 -1 -1 -2 -2 -2 -2 -2 -2 -2
9 9 9 9 8 8 8 7 7 7 7 6 6 6 6 6 6 6 6 6 7 7 7 7 7 7 7 7 6 6 5 5 5 5 5 4 4 3 3 2 1 1 1 0 0 0 1 1 1 1 1 1 1 1 1 1 0 -0 -1 -1 -1 -2 -2 -2 -2 -1 -1 -2 -2
9 9 9 9 8 8 8 7 7 7 7 6 6 6 6 6 6 6 6 6 6 7 7 7 7 6 6 6 6 5 5 4 4 4 4 4 3 3 2 2 1 1 1 0 0 0 1 1 1 1 1 1 1 1 1 1 0 -0 -1 -1 -1 -2 -2 -2 -1 -1 -1 -2 -2
9 9 8 8 8 8 8 7 7 7 6 6 6 6 6 6 6 6 5 5 5 5 6 6 6 6 6 5 5 5 4 4 3 3 3 3 2 2 2 2 1 1 0 0 0 0 1 1 1 0 0 0 0 0 1 1 0 -0 -1 -1 -1 -2 -2 -2 -1 -1 -1 -1 -1
Height
781 782 783 785 787 788 790 791 793 793 795 796 798 799 800 802 803 803 804 805 806 807 808 809 809 810 811 812 813 814 814 815 816 817 817 818 818 818 819 819 820 820 821 822 823 823 823 824 824 825 826 826 826 827 827 827 827 828 828 829 829 829 829 829 830 830 830 830 830
780 781 783 784 786 788 789 791 792 793 794 796 797 798 799 801 802 803 803 805 806 806 807 808 809 809 810 811 812 813 814 815 815 816 816 817 817 818 818 819 820 820 821 822 822 823 823 824 824 825 825 826 826 826 827 827 828 828 828 829 829 829 829 829 830 830 830 830 830
779 781 782 784 785 787 788 790 791 793 794 795 796 798 799 800 801 802 803 804 805 805 806 807 808 809 810 811 812 813 813 814 814 815 815 816 817 817 818 819 819 820 821 821 822 823 823 824 824 825 825 826 826 826 827 827 828 828 829 829 829 829 829 829 830 830 830 830 831
778 780 781 783 784 786 787 789 790 792 793 794 796 797 798 799 800 801 802 803 804 805 806 807 808 809 809 810 811 812 812 813 813 814 815 815 816 817 818 819 819 820 821 821 822 823 823 824 824 825 825 826 826 827 827 827 828 828 829 829 829 829 829 830 830 831 831 831 831
777 778 780 781 783 785 786 788 789 791 792 794 795 796 797 798 799 801 802 803 803 804 805 807 807 808 809 810 810 811 812 812 813 813 814 815 816 817 818 819 819 820 821 821 822 822 823 824 824 825 825 826 826 827 827 828 828 828 828 829 829 829 830 830 830 831 831 831 831
775 777 779 780 782 784 785 787 788 790 792 793 794 795 797 798 799 800 801 802 803 804 805 806 807 808 808 809 810 810 811 812 812 813 814 815 816 817 818 819 819 820 821 821 822 822 823 823 824 824 825 825 826 827 827 828 828 828 828 829 829 830 830 830 831 831 831 831 831
774 776 778 779 781 783 785 786 788 789 791 792 793 795 796 797 798 799 800 801 802 803 804 805 806 807 808 808 809 810 811 811 812 813 814 815 816 817 818 818 819 820 820 821 821 822 823 823 823 824 824 825 826 826 827 828 828 828 828 828 829 830 830 831 831 831 831 831 831
773 775 776 778 780 782 784 785 787 788 790 791 793 794 795 796 798 799 800 801 802 803 804 805 806 807 807 808 808 809 810 811 812 813 814 815 816 817 818 818 819 819 820 821 821 822 823 823 823 823 824 825 825 826 827 828 828 828 828 829 829 830 830 831 831 831 831 831 831
773 774 776 778 779 781 783 785 786 788 789 790 792 793 795 796 797 798 799 800 802 803 803 804 805 806 807 807 808 809 810 811 812 813 814 815 815 816 817 818 818 819 820 821 822 822 823 823 823 824 824 825 825 826 827 828 828 828 828 829 829 830 831 831 831 832 832 832 831
772 773 775 777 778 780 782 784 786 787 788 790 791 793 794 795 797 798 799 800 801 802 803 804 805 805 806 807 808 808 809 810 811 812 813 814 815 816 817 818 818 819 820 821 822 822 823 823 823 824 824 825 825 826 827 828 828 828 829 829 830 830 831 831 831 832 832 832 832
771 773 774 776 778 780 782 783 785 786 788 789 791 792 793 795 796 797 798 800 801 802 803 803 804 805 806 806 807 808 809 810 811 812 813 814 815 816 817 818 818 819 820 821 822 822 823 823 823 824 824 825 825 826 827 828 828 828 829 829 830 830 831 831 832 832 832 832 832
770 772 773 775 777 779 781 783 784 785 787 788 790 792 793 794 796 797 798 799 800 801 802 803 803 804 805 806 807 808 808 810 811 812 813 814 815 816 817 818 818 819 820 821 821 822 823 823 823 824 824 825 826 826 827 828 828 828 829 829 830 830 831 831 831 832 832 832 832
769 771 773 775 777 778 780 782 783 785 786 788 789 791 792 794 795 796 797 798 800 801 802 803 803 804 804 805 806 807 808 809 810 812 813 814 815 816 817 818 818 819 820 820 821 822 823 823 824 824 824 825 826 827 827 828 828 828 829 829 830 830 831 831 831 832 832 832 832
769 771 773 774 776 778 779 781 783 784 785 787 788 790 792 793 795 796 797 798 799 800 801 802 803 804 804 805 806 807 808 809 810 812 813 814 815 816 817 818 818 819 819 820 821 822 823 823 824 824 825 825 826 827 827 828 828 828 829 829 830 830 831 831 831 832 832 832 832
768 770 772 774 775 777 779 780 782 783 785 786 788 789 791 793 794 795 797 798 798 800 801 802 803 803 804 805 806 807 808 809 810 812 813 814 814 815 816 817 818 818 819 820 821 822 823 823 824 824 825 825 826 826 827 828 828 828 829 829 830 830 831 831 832 832 832 832 832
768 770 772 773 775 777 778 780 781 783 784 785 787 788 790 792 793 795 796 797 798 799 800 801 802 803 805 805 806 807 808 809 811 812 813 813 814 815 816 817 817 818 819 820 821 822 823 823 824 824 825 825 826 826 827 828 828 828 829 830 830 830 831 831 832 832 832 832 832
767 769 771 773 774 776 778 779 780 782 783 784 786 788 789 791 793 794 796 796 797 798 799 801 802 803 804 806 807 808 808 809 810 811 812 813 813 814 815 816 817 818 819 820 821 822 823 823 824 824 825 825 826 826 827 828 828 829 829 830 830 830 831 831 832 832 832 832 832
765 768 770 772 774 775 777 778 779 781 782 783 785 787 789 791 793 794 795 796 796 797 798 800 802 803 804 805 806 808 808 809 810 811 812 813 813 814 815 816 817 818 819 820 821 822 822 823 824 825 825 826 826 827 827 828 828 829 829 830 830 831 831 831 832 832 832 832 833
764 767 769 771 773 775 776 777 779 780 782 783 785 787 788 790 792 793 794 795 796 797 798 799 801 803 803 804 806 807 808 809 810 811 812 813 813 814 815 816 817 818 819 820 821 822 823 823 824 824 825 825 826 827 827 828 828 829 829 830 830 831 831 831 832 832 832 833 833
764 766 768 770 772 774 775 777 778 780 781 783 784 786 788 790 791 792 793 795 796 797 798 798 800 802 803 804 805 806 808 809 810 811 812 813 813 814 815 816 817 818 819 820 821 822 823 823 824 824 825 825 826 826 827 828 828 829 829 830 830 831 831 831 832 832 833 833 833
763 765 767 769 771 773 775 777 778 780 781 783 784 786 787 789 791 792 793 794 795 796 798 798 800 801 803 804 805 806 808 808 810 811 812 813 813 814 815 817 818 818 819 820 821 822 823 823 824 824 825 825 826 826 827 827 828 829 829 830 830 831 831 832 832 832 833 833 833
763 765 767 768 770 772 774 776 778 779 781 782 784 785 787 788 790 791 792 793 795 796 798 798 799 801 802 803 805 806 807 808 810 811 812 813 813 814 815 817 818 818 819 820 821 822 823 823 824 824 825 825 826 826 827 827 828 828 829 830 830 831 831 832 832 832 833 833 833
762 764 766 768 770 772 774 776 777 779 780 782 783 785 787 788 789 791 792 793 795 796 797 798 799 801 802 803 805 806 807 808 809 811 811 812 813 814 815 816 818 818 819 820 821 822 822 823 823 824 825 825 826 826 827 827 828 828 829 830 830 831 831 832 832 833 833 833 833
762 763 766 768 770 772 773 775 777 778 780 781 783 784 786 788 789 790 792 793 794 795 797 798 799 801 802 804 805 806 807 808 809 810 811 812 813 814 815 816 818 818 819 820 821 822 822 823 823 824 825 825 826 826 827 828 828 828 829 829 830 831 831 832 832 833 833 833 833
761 763 765 767 769 771 773 774 776 777 779 781 782 784 785 787 788 790 791 793 793 795 796 797 799 801 802 804 805 806 808 808 809 809 811 812 813 814 815 816 817 818 819 820 821 822 823 823 823 824 824 825 826 826 827 828 828 828 829 829 830 831 831 832 832 833 833 833 833
760 763 764 766 768 770 772 773 775 776 778 780 782 783 785 787 788 789 791 792 793 794 795 797 798 800 802 804 805 807 808 808 809 809 810 811 813 814 815 816 817 818 819 820 821 822 823 823 823 824 824 825 825 826 827 828 828 829 829 830 830 831 831 832 832 833 833 833 833
760 762 764 766 768 769 771 773 774 776 777 779 781 783 784 786 788 789 790 792 793 794 795 797 798 800 802 803 805 806 807 808 809 809 810 811 812 813 815 816 817 818 819 820 821 822 823 823 824 824 825 825 825 826 827 827 828 829 829 830 830 831 831 832 832 833 833 833 834
759 761 763 765 767 769 770 772 773 775 777 779 780 782 784 786 788 789 790 791 793 794 795 796 798 800 802 803 804 805 807 808 808 809 810 811 812 813 814 816 817 818 819 820 821 822 822 823 824 824 825 825 826 826 827 827 828 828 829 830 830 831 831 832 832 833 833 833 834
759 761 763 764 766 768 770 771 773 774 776 778 780 782 783 785 787 788 790 791 792 793 794 796 798 799 801 803 804 805 806 808 808 809 810 812 813 813 814 816 817 818 819 820 821 822 822 823 823 824 825 825 826 826 827 827 828 828 829 830 830 831 831 832 832 833 833 833 834
758 760 762 763 765 767 769 771 772 774 776 778 779 781 783 785 786 788 789 791 792 793 794 795 797 799 800 802 803 805 806 807 808 809 810 811 812 813 814 816 817 818 819 820 821 822 822 823 823 824 825 825 826 826 827 827 828 828 829 830 830 831 831 832 832 833 833 833 834
758 759 761 763 765 767 768 770 772 773 775 777 779 781 782 784 786 788 789 790 791 792 793 795 796 798 800 801 803 804 806 807 808 809 810 811 812 813 814 816 817 818 819 820 821 822 822 823 823 824 825 825 826 826 827 827 828 828 829 829 830 831 831 832 833 833 833 833 834
757 759 761 763 764 766 768 770 771 773 775 777 778 780 782 783 785 787 788 790 791 792 793 794 796 798 799 801 803 804 806 807 808 809 810 811 812 813 814 816 817 818 819 820 821 822 822 823 823 824 825 825 826 826 827 827 828 828 829 829 830 831 831 832 832 833 833 833 834
756 758 760 762 764 766 768 769 771 773 774 776 778 780 781 783 785 787 788 789 790 791 793 794 796 797 799 800 802 804 806 807 808 809 810 811 812 813 814 816 817 818 819 820 821 822 822 823 823 824 825 825 826 826 827 827 828 828 829 830 830 831 831 832 833 833 833 833 834
756 758 760 762 763 765 767 769 771 773 774 776 778 779 781 783 784 786 788 789 790 791 792 794 795 797 798 800 802 803 805 807 808 809 810 811 812 813 814 815 817 818 819 820 821 822 822 823 823 824 824 825 826 826 827 827 828 828 829 830 830 831 831 832 833 833 833 834 834
755 757 759 761 763 765 767 768 770 772 774 775 777 779 781 782 783 785 787 788 789 791 793 794 795 797 798 800 802 803 805 807 808 809 810 811 812 813 814 815 817 818 819 820 821 822 823 823 823 824 824 825 825 826 827 827 828 828 829 830 830 831 832 832 833 833 833 834 834
754 756 758 760 762 764 766 768 769 771 773 775 777 778 780 782 783 785 786 787 789 790 792 794 795 797 798 800 802 803 805 806 808 809 810 811 812 813 814 815 817 818 819 820 821 822 823 823 823 824 824 825 825 826 827 827 828 828 829 830 830 831 832 832 833 833 834 834 834
753 755 757 759 761 763 765 767 769 771 773 774 776 778 779 781 783 784 785 787 788 790 791 793 795 796 798 799 801 803 805 806 807 808 810 811 812 813 814 815 817 818 819 820 821 822 823 823 823 824 824 825 825 826 827 827 828 828 829 830 831 831 832 832 833 833 834 834 834
753 754 756 758 760 762 764 766 768 770 772 773 775 777 779 780 782 784 785 786 787 789 790 793 794 796 797 799 801 803 805 807 808 808 809 811 812 813 813 815 816 818 819 820 821 822 823 823 823 824 824 825 825 826 826 827 828 828 829 830 831 831 832 833 833 833 834 834 834
752 753 755 757 759 761 763 765 767 769 771 773 775 777 778 780 782 783 784 786 787 788 789 791 793 795 797 799 801 803 805 807 808 809 809 811 812 813 813 814 816 818 819 820 821 822 822 823 823 824 825 825 825 826 826 827 828 828 829 830 831 831 832 833 833 833 834 834 834
751 753 755 756 758 760 762 764 766 768 770 772 774 776 778 780 781 783 784 786 787 788 789 791 793 795 797 799 801 803 805 807 808 810 810 811 812 813 814 814 816 817 819 820 821 822 822 823 823 824 825 825 826 826 826 827 827 828 829 830 831 831 832 833 833 833 834 834 834
751 753 754 756 758 759 761 763 766 768 770 772 773 775 778 779 781 782 784 786 787 788 790 791 793 795 797 799 801 803 805 807 808 810 811 812 813 813 814 815 816 817 818 820 821 822 822 823 823 824 825 825 826 826 827 827 827 828 829 830 831 831 832 833 833 834 834 834 834
Wind_Speed
26 26 27 27 26 26 25 24 24 23 22 21 20 19 18 17 16 16 15 14 14 13 13 13 13 13 13 13 12 11 10 10 9 9 10 10 11 13 13 13 12 10 9 9 9 9 9 9 9 9 8 7 6 5 6 6 6 5 4 4 4 4 4 5 6 6 6 7 7
26 26 26 25 25 25 24 24 23 22 21 20 19 19 18 17 17 16 15 14 13 13 14 14 13 13 12 11 11 10 10 10 11 11 12 12 13 13 12 11 9 9 9 9 9 10 10 9 9 8 7 6 6 7 8 7 5 4 3 3 3 4 4 6 8 8 7 8 8
26 25 25 25 25 24 24 23 22 21 20 19 18 18 17 17 17 16 15 14 14 14 15 14 12 11 10 10 10 10 10 11 12 13 13 13 12 11 10 9 8 9 9 9 10 10 9 8 7 7 6 6 7 8 8 6 4 2 1 3 3 5 6 8 9 9 8 8 8
26 25 25 25 24 24 24 23 22 21 20 19 18 17 17 17 17 16 15 15 15 15 13 12 10 10 9 9 10 10 11 12 12 12 12 11 10 9 8 8 9 10 10 10 10 9 8 7 6 5 5 6 7 7 6 5 3 2 2 4 5 6 7 8 9 8 8 7 7
27 26 25 25 24 24 23 22 21 20 19 18 18 17 17 17 17 17 16 16 15 14 12 10 10 9 9 9 10 11 11 11 11 11 10 10 9 9 9 10 10 11 11 10 9 8 7 5 4 4 5 6 6 6 5 4 3 3 4 5 6 6 7 8 7 7 7 6 7
28 27 26 25 24 23 22 21 20 20 19 18 18 18 18 17 17 17 16 16 14 12 11 11 10 10 10 10 11 11 11 11 11 11 10 10 10 11 11 12 12 12 11 10 9 7 6 5 5 6 6 6 6 5 5 4 4 4 5 6 6 6 6 6 7 6 6 6 6
29 28 27 25 24 23 22 21 20 19 18 18 18 18 18 17 17 16 15 14 13 12 12 12 11 11 11 11 11 11 10 11 11 11 12 12 12 13 13 13 13 12 12 11 9 8 7 6 7 8 8 7 6 6 5 5 4 3 4 5 6 6 7 7 7 6 5 5 6
30 28 27 26 24 23 22 20 19 18 18 18 18 18 17 17 17 16 15 13 12 12 13 13 13 12 12 12 11 11 11 11 12 13 13 13 14 14 14 14 13 12 11 10 8 8 7 7 7 8 8 7 7 7 6 5 3 3 4 6 7 8 8 8 7 6 5 5 7
29 28 27 26 25 23 21 20 19 18 18 18 17 17 17 17 17 16 14 13 12 13 13 14 14 13 13 13 12 11 12 13 14 15 14 14 15 15 15 14 13 11 9 7 6 6 7 7 8 8 8 8 8 7 6 5 3 3 4 7 8 9 8 8 7 6 6 6 7
29 28 27 26 24 23 21 20 18 18 17 17 17 17 17 17 17 16 14 13 13 14 14 14 14 14 14 14 13 13 14 15 16 16 15 15 16 15 15 14 12 10 7 6 6 7 8 8 8 9 8 8 7 7 6 5 4 4 5 7 8 8 9 8 7 7 6 7 8
29 28 27 26 25 23 21 20 19 18 18 17 17 17 17 17 17 16 15 14 14 15 15 15 15 16 16 15 14 14 15 16 16 16 16 16 16 15 14 13 11 9 8 7 8 8 9 8 8 8 8 7 6 6 6 6 6 6 7 8 8 8 8 8 8 7 7 8 9
29 28 27 26 25 23 22 20 20 19 19 18 18 18 18 19 18 18 16 15 15 15 16 16 17 17 17 17 16 16 17 17 17 17 17 17 16 15 13 12 11 10 9 9 9 9 8 7 7 7 7 7 6 6 7 7 6 7 8 8 8 8 8 9 8 8 8 9 11
28 28 27 26 25 23 22 21 20 20 20 19 19 19 20 20 20 19 18 17 16 16 17 18 18 19 19 18 18 18 18 17 17 17 17 17 16 14 13 11 11 10 10 9 9 9 8 7 6 6 7 7 7 7 7 6 6 6 7 8 8 9 9 9 9 9 10 11 12
28 27 27 26 25 24 23 22 21 20 20 20 20 21 21 22 21 20 19 17 16 17 18 19 20 20 20 20 19 19 18 17 17 17 17 17 15 14 13 11 10 10 10 10 9 9 8 7 6 6 6 7 7 7 7 7 6 6 7 8 9 9 10 10 10 11 11 12 13
27 27 26 26 25 24 23 22 21 21 21 21 22 22 23 23 23 22 20 18 17 17 19 20 21 20 20 20 20 19 18 18 18 18 17 17 15 14 12 11 10 10 10 10 10 9 7 6 6 5 5 6 6 7 7 7 6 6 7 7 8 9 11 12 12 12 12 12 13
27 27 26 26 25 24 23 22 22 22 22 23 23 23 24 24 24 23 21 19 18 18 20 21 21 21 20 20 20 19 19 18 18 18 17 17 16 14 12 10 10 10 10 10 9 9 8 7 6 5 5 5 5 6 7 8 7 7 7 8 9 10 12 13 13 12 12 12 12
27 27 26 26 25 24 23 23 23 23 24 25 25 24 24 24 24 23 22 20 20 20 21 22 21 21 21 20 20 19 19 19 19 18 18 17 16 14 12 10 10 10 10 9 9 9 9 8 7 6 5 5 5 6 7 8 8 8 9 10 11 12 13 13 13 12 11 11 12
27 27 26 26 25 25 24 25 25 25 26 26 26 25 25 25 25 24 23 21 21 22 22 23 22 22 22 22 21 21 21 20 20 19 18 17 15 14 12 11 11 11 10 9 8 8 8 8 7 7 6 5 6 6 7 8 8 9 10 12 13 14 14 14 13 12 12 12 13
27 27 26 26 26 26 26 26 26 27 27 27 26 26 25 25 25 24 23 22 22 23 23 23 23 23 23 23 23 22 22 21 19 18 17 16 15 13 12 12 11 11 10 9 8 8 8 8 7 7 7 7 7 7 8 8 9 10 12 13 15 15 15 14 14 13 13 13 13
27 27 27 27 27 27 27 27 27 27 27 27 27 26 26 26 25 24 24 24 24 24 24 23 23 24 24 24 24 23 22 20 19 18 16 15 14 13 12 11 11 11 10 9 9 9 8 8 7 7 7 7 7 8 9 10 11 12 14 15 15 16 15 15 14 14 14 13 13
27 27 27 28 28 29 28 28 28 28 28 27 27 27 27 26 25 24 24 25 25 24 23 23 23 24 25 25 25 24 22 20 19 17 16 15 13 12 11 11 10 10 10 10 9 9 8 8 7 7 7 7 7 8 10 11 12 14 15 16 16 16 16 15 15 14 14 13 12
28 28 28 29 29 29 29 29 28 28 28 28 27 27 27 26 25 25 25 26 26 24 23 22 23 24 25 25 24 23 22 20 19 17 16 15 13 12 11 10 10 10 10 10 10 9 8 8 7 7 7 7 8 8 10 11 13 15 16 16 16 16 16 15 15 14 13 12 11
28 28 29 29 30 30 30 29 29 29 28 28 28 28 27 26 26 26 26 27 26 24 23 22 23 24 25 25 24 22 21 20 19 18 16 15 13 13 12 11 10 10 10 10 9 9 9 9 8 8 8 8 9 10 11 12 13 15 16 16 16 16 16 15 14 13 12 10 10
29 29 30 30 30 31 30 30 30 30 29 29 28 28 27 26 26 27 27 27 26 24 23 23 24 24 24 24 23 21 21 20 19 18 16 15 14 13 13 12 11 10 10 9 8 8 8 8 9 9 9 9 10 11 11 12 13 14 15 16 16 16 16 15 13 12 10 9 9
30 30 31 31 31 32 31 31 31 31 31 30 29 28 27 27 27 28 28 27 25 24 24 24 25 25 24 23 22 20 19 19 18 17 16 15 15 14 13 13 12 11 10 9 9 8 7 7 8 9 10 10 11 12 12 12 12 12 13 14 15 15 15 14 13 11 9 8 7
31 31 32 32 32 32 32 32 32 32 31 30 29 28 27 27 27 28 28 27 25 25 25 25 26 25 24 23 21 20 19 18 17 16 16 16 16 15 14 13 12 12 11 10 10 9 8 8 8 8 9 10 11 12 13 12 12 11 12 12 13 14 14 13 12 10 9 7 7
32 32 32 33 33 33 33 33 33 32 32 31 30 29 28 28 28 28 28 27 26 26 26 26 26 25 24 23 22 20 19 18 17 16 16 15 16 15 15 14 13 13 12 11 11 10 10 9 9 8 8 9 10 11 12 13 12 12 11 11 11 12 12 12 11 10 8 7 6
32 33 33 33 33 33 33 33 33 33 32 31 30 29 28 28 28 28 28 27 26 27 27 27 26 25 24 23 22 21 20 18 18 18 16 15 15 15 15 14 14 13 12 12 11 11 10 10 9 9 9 9 10 10 11 12 13 12 12 11 11 11 10 10 9 9 8 7 6
33 34 34 34 34 33 34 33 33 33 32 31 30 29 29 29 29 29 28 27 27 27 27 27 25 24 24 24 23 21 20 20 19 18 17 16 16 15 15 15 14 14 13 12 12 11 11 10 10 10 9 9 10 10 11 12 12 12 12 11 11 10 10 9 9 8 7 7 6
34 34 34 34 34 34 34 34 33 33 32 31 31 30 30 30 30 29 28 28 28 28 27 26 25 24 24 24 23 22 21 21 20 19 18 17 16 16 15 15 15 14 14 13 12 12 11 11 11 10 10 10 10 11 12 12 12 12 12 12 11 10 9 9 8 8 7 7 6
34 35 35 35 34 34 34 33 33 33 32 32 31 31 31 30 30 30 29 29 29 28 27 26 25 25 24 23 22 22 21 21 20 19 18 17 17 16 16 15 15 15 14 13 12 12 12 11 11 11 11 11 11 12 12 12 13 12 12 12 11 10 9 9 8 7 7 7 7
35 35 35 35 34 34 33 33 33 33 33 32 32 31 31 30 30 30 29 28 28 28 27 27 26 25 25 23 22 22 21 21 20 19 18 17 17 17 17 17 16 16 15 13 13 12 12 12 12 12 12 12 12 12 13 13 13 12 12 11 11 10 9 8 8 7 7 7 7
35 35 35 35 34 33 33 33 33 33 32 32 32 31 31 31 30 30 29 28 28 28 28 27 27 27 26 24 23 22 22 21 20 19 18 17 17 17 18 18 18 16 15 14 13 13 13 13 13 13 13 13 13 13 13 13 13 13 12 12 11 10 9 8 8 7 7 7 7
35 35 35 35 34 33 33 33 32 32 32 32 31 31 31 31 31 30 29 29 28 28 28 27 27 26 25 23 23 23 23 22 21 20 19 18 18 18 19 19 18 17 15 15 14 14 14 14 14 13 13 13 13 13 13 13 13 13 12 12 11 10 9 8 8 7 7 8 7
35 35 35 34 34 34 33 32 32 32 32 32 31 31 31 31 31 30 30 29 28 28 27 26 26 25 24 23 22 22 23 22 21 20 20 19 19 20 20 20 19 17 16 15 15 15 15 15 14 14 14 14 14 13 13 13 13 13 13 12 12 11 10 9 8 8 8 8 8
36 36 35 35 34 34 33 33 33 32 32 32 32 31 31 31 31 30 29 29 29 29 28 27 26 26 25 25 24 24 23 23 22 22 21 21 21 21 21 20 20 18 17 16 15 15 15 15 15 14 14 14 14 14 13 13 13 13 13 13 13 12 11 10 10 10 9 9 9
36 36 36 36 35 34 34 34 33 33 32 32 32 32 31 31 30 30 29 30 30 29 29 28 27 27 27 26 26 25 23 23 23 23 23 22 22 22 22 22 21 19 18 17 16 16 15 15 14 14 14 15 15 14 14 14 13 14 14 14 14 13 13 12 12 11 10 10 10
36 36 36 36 35 35 34 34 34 33 33 32 32 32 32 31 31 30 30 30 31 30 29 28 28 27 27 26 25 24 23 23 23 23 23 23 22 22 23 23 22 20 19 17 17 16 15 14 14 14 14 14 15 15 15 15 14 15 15 15 15 15 15 14 13 12 11 11 10
35 36 36 36 36 36 35 34 34 33 33 33 32 32 32 31 31 30 30 30 31 30 30 29 28 27 27 26 26 25 24 23 23 23 23 23 23 22 23 23 23 22 20 18 17 16 15 14 14 13 13 13 14 14 14 15 15 16 16 16 17 17 16 15 13 12 12 11 11
35 35 36 36 36 36 35 34 34 33 33 33 33 32 32 31 31 30 30 30 29 29 29 29 29 28 27 27 26 26 26 25 24 23 23 23 23 23 23 23 23 22 20 19 17 16 15 14 13 13 13 12 12 13 13 15 16 17 18 18 18 18 17 15 14 12 11 11 10
35 35 35 35 35 36 35 34 34 33 33 33 33 33 32 32 31 31 31 30 29 28 28 29 29 28 28 27 27 27 28 27 25 24 23 23 24 24 23 23 23 22 21 19 17 16 14 13 13 13 12 12 11 11 12 14 16 18 19 19 19 19 18 16 15 13 11 9 9
Wind_Direction
200 201 202 202 203 203 204 205 207 210 211 211 211 211 210 210 210 212 214 216 217 217 218 220 224 226 228 227 226 224 222 225 231 237 241 242 241 241 240 237 232 224 215 210 205 198 191 187 183 177 170 166 159 147 136 130 128 126 122 112 105 101 94 83 74 70 68 67 63
200 201 202 202 203 203 203 204 207 209 212 213 213 213 212 211 211 212 212 213 214 217 219 221 223 226 228 228 226 224 222 222 226 230 233 234 235 235 233 226 217 208 202 199 194 187 181 179 176 169 162 160 155 142 132 128 127 130 129 116 102 89 77 71 67 63 62 64 64
200 201 201 202 202 202 202 203 206 209 211 212 213 213 213 212 212 211 211 212 214 217 219 221 222 223 224 225 225 224 223 223 225 227 227 227 227 225 220 209 198 191 188 186 182 178 174 171 167 160 155 153 149 138 128 125 124 134 123 84 69 63 65 67 66 65 66 71 73
199 200 200 201 202 203 203 204 206 209 211 211 211 211 212 212 210 209 210 213 215 216 216 215 214 214 216 219 222 222 221 220 220 221 220 217 211 205 196 186 178 176 175 175 173 170 166 160 154 148 144 143 139 130 122 119 121 115 88 75 67 61 60 63 67 72 80 89 87
198 200 201 203 204 205 206 208 209 210 211 210 209 208 208 209 208 208 210 213 213 211 207 203 204 205 209 214 218 216 213 210 209 208 206 200 190 182 175 171 169 168 168 167 166 163 159 155 149 142 137 135 129 121 113 113 114 105 95 89 78 70 69 72 75 80 90 99 92
198 200 202 204 205 206 207 209 211 211 210 209 207 206 205 205 206 207 209 210 207 201 196 195 198 202 207 210 210 205 200 196 193 192 189 183 175 170 167 166 166 166 165 163 162 162 162 162 153 145 140 136 130 125 122 121 116 109 105 102 86 81 85 91 91 93 95 94 85
197 199 201 204 205 206 207 209 210 210 209 207 206 205 205 204 205 207 207 204 198 193 191 193 197 201 204 205 200 196 192 187 183 181 179 174 169 166 165 165 166 165 164 163 163 163 164 164 156 148 144 141 135 131 129 127 124 118 111 104 92 93 99 100 97 95 91 82 77
198 200 202 204 205 205 206 207 207 207 206 206 206 205 205 205 204 202 198 193 190 190 191 194 196 199 200 201 196 194 191 185 179 175 174 171 168 166 166 166 167 165 163 163 162 163 164 164 157 147 140 136 131 129 131 135 136 127 111 105 105 104 103 99 97 92 84 77 77
196 199 201 203 204 205 205 206 206 205 205 206 205 204 205 205 201 194 186 183 187 191 192 192 192 194 197 198 196 193 189 182 176 172 171 171 169 168 168 169 168 166 163 162 164 167 167 164 152 140 131 126 124 125 129 138 146 136 119 111 112 110 106 101 99 97 91 84 83
194 197 199 201 202 203 204 204 205 205 204 204 202 201 201 201 194 184 177 179 186 191 191 190 190 193 195 196 193 189 183 178 174 172 171 171 171 171 171 172 170 168 166 169 171 170 166 160 147 134 124 120 117 119 127 140 149 137 121 114 113 113 111 108 107 105 101 97 94
194 197 199 200 200 200 201 201 201 202 201 199 197 197 196 195 186 177 174 179 186 190 190 191 192 193 194 193 189 182 177 174 173 173 173 173 173 173 173 171 171 171 170 169 167 165 162 157 144 132 123 118 118 124 132 141 140 129 119 116 116 117 117 117 117 113 109 105 105
195 197 198 199 199 199 198 198 197 196 194 192 191 191 191 188 180 176 176 180 185 188 190 191 192 193 192 189 183 178 175 174 175 175 175 174 174 173 171 170 169 165 162 159 159 159 160 156 146 134 126 123 126 134 141 145 139 129 123 122 123 123 122 122 122 119 114 111 108
195 196 197 197 197 196 196 195 193 190 187 186 185 186 185 182 179 177 179 181 184 187 188 189 190 190 188 185 181 177 176 176 177 176 175 173 172 170 169 166 163 159 155 154 157 160 161 158 148 138 131 131 135 143 149 152 146 136 131 131 131 129 126 125 124 122 118 114 108
194 194 195 195 194 193 192 190 187 184 182 181 181 181 180 178 178 179 181 181 183 186 188 186 186 185 185 183 180 178 178 178 177 176 173 171 169 167 166 164 162 160 158 157 160 163 164 159 152 145 140 140 143 150 157 160 154 146 141 140 137 133 128 126 124 123 120 114 108
192 193 194 193 191 189 187 184 182 179 178 176 176 176 177 176 178 180 180 180 183 187 188 185 182 182 182 180 178 177 177 177 177 175 171 168 167 166 165 164 165 165 162 160 161 163 165 163 160 157 152 150 151 157 162 165 161 155 149 144 138 132 128 126 126 125 121 115 108
190 191 192 190 188 185 182 179 177 175 174 172 173 175 175 176 178 179 179 179 183 186 186 182 179 178 178 177 176 176 175 175 175 173 170 167 166 166 166 167 168 167 165 163 162 163 166 167 167 166 164 161 161 164 166 166 163 156 148 139 132 128 127 127 128 126 121 113 106
187 189 189 187 184 181 178 175 174 172 172 171 173 175 176 177 178 179 180 182 184 184 181 178 177 176 176 176 176 176 175 174 174 173 172 169 167 166 166 168 168 168 167 167 166 167 167 167 167 169 170 170 169 169 168 168 163 154 144 135 130 128 128 129 129 125 118 108 100
185 186 186 184 181 178 175 173 172 172 172 172 174 176 178 179 179 179 180 183 184 181 177 175 175 176 177 177 177 176 175 174 174 176 176 173 168 165 164 166 167 168 168 169 170 170 169 169 170 172 173 172 170 168 167 166 159 149 139 133 130 130 130 130 127 119 110 102 97
183 183 182 180 177 175 174 173 173 173 173 174 174 175 177 179 179 179 178 179 180 179 177 174 175 177 178 178 177 176 176 176 178 179 178 173 167 164 163 165 166 167 167 169 170 171 171 173 174 176 176 174 170 167 165 161 154 144 137 133 132 131 131 128 122 115 108 103 100
181 180 178 177 175 174 173 174 174 173 173 173 173 173 175 177 178 178 177 176 177 178 178 177 177 177 178 179 178 177 177 179 181 180 176 169 164 162 162 164 165 165 167 169 171 173 174 175 176 177 178 177 172 167 163 158 149 141 136 133 133 132 130 127 121 116 112 109 105
179 178 176 174 173 173 173 173 173 172 171 170 170 171 172 174 177 178 178 177 177 177 179 180 180 179 179 179 178 178 178 180 179 175 170 164 161 160 162 165 166 166 168 170 173 174 175 175 174 173 174 174 171 167 161 155 146 140 136 134 134 132 130 128 124 121 118 114 108
177 176 174 173 172 172 171 171 170 169 168 167 168 169 171 173 176 177 177 176 175 176 179 181 182 182 181 181 179 179 179 179 175 169 164 160 158 159 161 165 168 169 171 173 175 176 175 171 169 168 167 166 164 161 158 152 146 141 138 137 136 135 133 131 129 126 122 117 108
174 172 171 171 170 170 169 168 167 166 165 165 166 168 170 172 174 174 173 173 174 176 179 182 183 183 182 181 181 181 180 175 169 164 160 158 158 160 163 166 169 172 174 176 178 179 175 169 164 162 162 160 156 155 153 151 147 144 141 140 139 138 137 136 134 131 125 119 109
170 169 168 168 167 167 166 165 164 164 164 164 166 168 170 172 172 171 171 171 173 177 179 181 181 180 180 180 181 180 177 170 164 161 159 159 161 162 163 166 169 171 173 174 176 178 176 170 163 159 158 155 152 149 149 150 149 147 145 144 143 143 142 141 139 134 129 122 111
168 167 166 165 165 165 164 163 163 163 164 165 167 169 171 172 171 170 170 170 173 176 178 178 177 177 178 179 179 178 173 167 163 161 160 160 162 162 163 165 167 168 168 167 166 167 167 165 161 159 157 154 150 148 148 150 151 151 149 148 147 147 146 145 144 140 133 123 112
166 164 163 163 163 163 163 163 164 164 165 167 168 169 170 171 171 170 170 171 173 175 176 174 173 174 176 178 176 173 169 166 164 163 163 162 162 163 164 166 166 166 165 162 159 158 156 155 155 155 156 155 153 150 150 151 153 154 153 151 151 151 151 149 148 145 139 127 113
163 162 162 163 162 162 163 164 165 165 166 167 167 168 169 171 171 170 170 171 172 173 173 171 170 172 174 175 173 170 168 167 167 166 165 164 165 165 166 166 165 163 161 158 157 155 153 152 151 152 154 156 155 154 153 153 154 156 156 155 155 156 156 155 153 150 143 132 119
162 161 161 162 162 162 163 165 165 165 165 167 167 168 169 170 171 170 170 170 171 170 168 167 169 171 173 171 170 169 169 169 168 166 165 166 168 168 167 166 163 160 158 156 156 155 153 152 152 153 155 157 157 157 155 154 155 156 157 156 157 158 159 158 157 153 146 134 123
162 161 161 161 161 162 164 164 164 164 165 167 167 169 170 170 171 171 171 171 170 168 166 166 169 171 171 169 169 169 169 169 167 166 165 167 168 168 167 165 160 156 155 157 157 156 155 154 153 154 156 158 159 158 156 155 154 155 156 156 158 159 159 158 155 151 143 131 119
162 162 161 161 162 162 163 164 164 164 165 166 167 168 169 171 172 172 172 172 170 169 169 170 171 171 171 170 169 169 168 167 166 167 167 168 167 166 165 163 157 154 154 158 159 158 157 155 155 155 156 158 158 158 156 154 154 154 154 155 157 159 159 156 152 146 137 126 116
162 162 162 162 162 162 163 164 164 164 165 166 167 168 170 171 172 173 174 173 172 171 172 173 172 172 172 171 170 169 168 167 166 167 169 170 168 165 163 160 154 152 155 159 161 160 158 157 156 155 155 157 157 156 154 153 153 153 153 154 156 157 157 154 149 141 132 122 116
163 163 162 162 161 162 162 163 163 164 165 166 168 169 170 171 173 174 174 174 174 173 173 173 173 172 171 170 170 170 169 168 168 168 170 171 168 164 161 156 150 151 155 160 161 160 159 158 156 155 155 155 154 153 152 152 152 152 153 154 155 156 155 151 146 137 128 122 119
163 163 163 162 161 161 162 162 163 164 165 166 168 169 170 171 172 173 173 174 175 175 175 175 175 173 171 170 170 169 169 169 169 169 171 171 168 163 157 152 149 150 155 158 159 160 159 158 156 155 154 153 152 152 152 152 152 153 154 155 155 155 153 151 145 136 129 125 123
163 163 162 162 161 161 161 162 163 164 165 165 167 169 170 171 171 171 172 174 176 177 177 177 175 173 172 172 173 172 171 170 169 168 169 169 168 162 156 151 150 152 154 157 158 159 159 158 157 155 153 152 151 152 152 153 155 156 156 157 156 155 154 151 145 138 132 128 123
164 163 162 162 161 161 161 162 163 164 164 165 166 168 170 171 172 173 174 175 176 175 174 174 173 171 170 172 175 175 173 170 168 168 168 168 166 160 155 152 151 153 155 157 158 158 158 158 157 155 153 151 151 152 154 155 156 157 158 158 158 157 155 152 146 139 133 125 116
165 164 163 162 162 162 162 163 163 164 164 165 166 167 169 171 172 174 175 175 175 173 171 171 171 170 169 170 173 175 174 172 169 168 168 168 165 159 154 152 152 154 157 159 159 159 158 158 157 154 152 151 150 151 153 155 156 157 158 158 157 156 155 150 144 138 129 119 109
167 166 165 163 162 163 163 164 164 164 165 166 167 168 169 170 171 172 174 175 173 171 171 172 171 172 172 172 172 173 174 173 170 168 167 167 165 159 155 153 153 155 158 159 159 160 159 158 156 153 151 150 150 150 152 154 155 156 157 156 155 153 151 147 143 137 128 118 109
169 168 167 165 164 164 165 166 166 166 166 167 169 170 171 171 171 171 173 174 173 171 171 173 173 174 175 175 173 172 172 172 171 169 167 166 165 161 157 154 154 156 159 160 161 161 160 158 154 151 150 149 148 149 150 152 154 155 155 154 152 151 149 147 144 138 130 122 118
170 169 169 167 166 166 167 167 167 168 168 169 169 170 171 172 171 172 174 175 174 173 172 172 173 174 175 174 171 169 168 169 171 171 168 165 164 163 160 157 157 158 160 162 163 163 161 156 151 148 148 147 146 148 150 151 152 153 153 153 151 150 150 149 145 139 131 126 126
170 171 170 169 169 168 168 168 169 170 171 170 170 171 172 172 172 173 173 173 173 172 172 172 172 173 173 172 169 166 166 167 169 169 167 164 163 163 163 160 159 160 161 164 166 167 163 156 151 148 147 146 145 147 149 151 152 153 153 153 151 150 149 149 145 139 134 132 133
171 171 171 171 171 170 170 169 170 171 172 172 172 172 173 173 173 172 172 171 170 170 169 169 170 171 171 170 168 166 165 165 167 167 166 164 164 164 165 164 162 162 163 166 169 170 166 160 154 151 149 147 146 147 150 153 153 154 154 154 153 152 150 148 145 140 139 140 142